Showing default

GEESAT 1-08, 52792

Orbit data source: Space-Track

GEESAT 1-08, 52792 is a payload satellite owned by GeeSpace (CN) in LEO that was launched on Thu, 02 Jun 2022 UTC via a CHANG ZHENG 2C launch vehicle from the Xichang Space Center, China (XSC). Payload-class satellites include a variety of spacecraft equipped with specific instruments for various scientific and technological missions. These include communications satellites like Starlink; space stations such as the ISS; scientific satellites like the Hubble; Earth observation satellites from companies like Planet Labs, Umbra, and HawkEye 360; GPS; miniature CubeSats for education and research; and military/defense satellites.

Loading next visibility...
Identifier
52792, 2022-058H
Orbit
LEO
Country
Flag of CNCN / PRC
Related business
Manufacturer
GWCG
Mission
Operational Commercial Navigation
Bus & Motor
GPS100, Unknown motor
Mass
130 kg wet, 130 kg dry
Launch date (UTC)
2022-06-02 (4 years ago)
Launch vehicle
CHANG ZHENG 2C
Launch site
Xichang Space Center, China (XSC)
Object type
Payload
Rocket body
Debris
Shape & HBR
Box + 2 Pan, 1.0 m
Radar Cross Section
0.833 m², Medium (>0.1 m² and < 1m²)

Expand to show TLE details & history
Last TLE update: 15 hours ago

TLE from 15 hours ago
0 GEESAT 1-08
1 52792U 22058H   25348.98514484  .00004021  00000-0  36537-3 0  9991
2 52792  49.9934 336.1797 0002320  69.2575 290.8617 14.97180640192579
Epoch: 2025-12-14T23:38Z
TLE epoch observation values (Epoch: 2025-12-14T23:38:36.514Z)
Latitude
-0.00004°
Longitude
-102.36268°
Altitude
575.585 km
Speed
7.575 km/s
True Right ascension
22h 24m 43s
True Declination
0° 00' 00"
Sunlit
Object was in daylight at epoch
Visualization orbit readout
Latitude
Unknown
Longitude
Unknown
Altitude
Unknown
Speed
Unknown
Apparent Right ascension
Unknown
Apparent Declination
Unknown
Sunlit
N/A
Visualization observer readout
Local Sidereal Time
13:24:51
Azimuth
Unknown
Elevation
Unknown
Doppler factor
Unknown
Orbital elements
Apogee altitude
577.99 km
Perigee altitude
574.763 km
Semi-major axis
6,954.513 km
Eccentricity
0.00023
Inclination
49.9934°
RAAN
336.1797°
Arg. of periapsis
69.2575°
True anomaly
290.83686°
Mean anomaly
290.8617°
Eccentric anomaly
290.84928°
Mean motion
3.74234 °/min
Orbital period
96.2 mins
BSTAR
0.00036537
Loading maneuver chart data...
Computing Atmospheric mass density...
Loading historical data...
Loading historical data...
Loading historical data...
Loading historical data...
Loading historical data...
Loading historical data...
Loading historical data...

Documentation

Showing up to 5 results
|